Theta_e
337 340 347 348 347 347 347 348 348 349 349 350 350 349 349 348 348 349 349 347 345 342 342 342 341 341 341 340 339 339 339 339 342 341 341 341 341 341 341 341 340 333 337
339 340 345 347 347 345 345 346 347 347 348 349 348 348 348 347 347 346 347 345 344 341 341 340 340 339 339 339 338 337 337 339 340 341 339 339 339 337 339 338 339 332 339
338 340 341 345 346 344 344 346 347 347 347 347 347 347 346 346 347 345 345 343 340 340 340 339 338 338 338 338 338 338 338 339 338 338 336 329 332 335 336 336 337 335 338
336 336 338 342 345 344 344 344 346 346 347 347 347 346 345 344 345 344 344 341 337 340 339 338 337 336 336 337 337 338 338 339 336 333 327 326 332 337 335 334 334 336 336
335 336 340 343 346 345 343 342 342 341 344 345 344 343 345 343 343 344 343 343 340 338 338 337 336 336 336 336 337 337 336 338 334 328 323 324 325 332 334 334 334 334 334
334 336 340 343 344 344 343 341 341 341 341 341 340 340 340 341 343 344 343 342 341 338 337 336 335 335 335 334 335 335 334 338 331 323 323 328 324 333 333 332 331 331 332
333 336 338 341 342 343 342 341 341 341 339 339 338 338 338 339 341 343 343 343 340 337 336 335 334 333 332 332 332 332 332 333 323 323 323 324 326 332 332 332 331 330 329
333 334 336 335 339 341 341 341 340 340 339 338 338 337 337 338 340 341 340 341 339 337 336 334 333 332 331 330 330 330 331 330 324 323 324 325 332 332 332 331 330 330 329
335 332 333 335 335 335 337 337 337 338 338 338 338 337 335 335 337 334 337 339 338 337 336 334 333 331 331 329 329 329 328 328 322 324 326 325 333 333 332 331 330 330 329
334 332 330 332 333 334 334 332 333 335 336 335 334 331 329 330 331 331 332 336 336 335 333 333 332 331 329 328 327 326 326 326 322 324 324 327 333 332 332 331 330 330 329
331 332 331 331 331 331 334 329 329 330 331 330 329 327 326 327 327 330 329 333 334 333 331 330 329 329 328 326 327 325 325 322 321 322 323 330 332 332 332 331 330 330 329
326 328 332 330 331 332 331 331 332 331 330 329 327 326 327 326 326 327 323 328 330 329 329 328 327 327 325 322 321 324 322 321 321 320 320 328 331 332 331 330 329 329 329
325 329 330 331 332 330 330 330 329 328 329 329 328 328 327 325 323 326 324 324 323 320 321 323 321 322 321 321 321 321 322 321 320 320 321 325 327 329 331 332 332 333 333
325 327 330 330 333 332 332 331 331 330 328 327 328 329 326 325 324 321 322 323 324 323 321 319 319 318 319 320 320 320 320 320 320 321 318 321 325 327 329 330 331 330 331
323 325 327 329 329 334 332 332 331 329 329 327 327 328 329 326 324 323 320 319 319 320 320 318 316 318 317 318 319 319 319 319 320 320 319 318 323 324 326 328 329 330 329
325 324 327 327 329 333 331 331 332 331 329 329 327 327 328 328 326 324 321 320 318 317 316 316 315 317 317 317 318 319 318 319 319 319 319 319 321 324 325 326 327 328 329
326 326 326 326 329 328 330 330 330 330 329 328 329 329 328 329 328 325 323 321 320 320 320 320 320 319 318 318 317 318 318 318 319 318 319 320 319 319 323 325 326 327 326
327 326 325 328 327 328 328 330 329 328 328 327 328 329 329 330 329 326 327 326 326 323 322 321 320 319 318 317 316 317 316 318 318 318 319 319 318 317 319 321 321 322 323
328 327 326 325 324 326 328 328 329 328 327 328 328 328 329 330 330 328 327 328 328 324 325 324 323 321 320 319 319 315 316 317 318 320 318 318 317 318 315 318 316 317 319
327 328 327 326 324 325 326 326 327 328 328 328 327 328 329 330 330 328 328 328 325 321 321 321 320 320 319 318 316 315 315 317 319 318 317 318 317 316 315 314 311 311 314
325 327 328 326 326 325 325 324 323 324 326 326 327 328 328 329 329 328 327 325 323 321 320 321 320 319 318 317 313 314 316 318 318 317 317 316 316 315 313 311 310 309 307
325 326 327 328 328 327 326 326 325 325 325 327 327 327 328 328 328 328 328 326 326 323 323 321 319 317 317 318 314 312 308 313 314 316 316 316 314 315 312 310 308 306 301
324 325 327 328 329 330 328 327 325 325 325 325 327 327 328 328 329 329 329 327 325 323 322 321 320 318 316 316 316 314 308 306 311 313 314 313 315 313 310 308 306 303 296
324 325 327 329 330 331 330 327 326 325 323 326 327 329 330 328 328 329 330 328 326 325 323 321 320 318 317 315 313 315 315 314 309 308 311 312 312 311 308 306 301 299 297
323 325 327 328 329 330 331 330 328 326 327 328 328 328 329 330 328 329 329 328 327 327 325 324 319 318 318 316 315 313 311 310 310 308 306 308 310 309 307 304 300 296 295
320 322 324 325 326 329 330 331 329 327 326 326 327 327 329 330 330 329 328 328 328 328 326 326 323 319 319 318 316 313 311 309 306 306 306 306 306 306 304 300 297 294 292
Wind_Speed
9 9 9 10 10 12 12 12 12 11 13 16 17 17 17 18 18 18 18 19 18 20 20 20 20 20 20 19 18 18 16 15 19 22 21 21 21 22 23 21 18 14 20
13 10 9 8 11 12 12 12 11 11 13 15 16 17 17 17 18 19 18 18 18 19 20 20 19 18 18 17 17 16 15 12 9 16 18 17 19 19 21 20 19 17 19
14 10 10 9 11 13 12 11 11 13 14 14 15 17 16 16 17 18 18 16 17 19 19 19 18 18 17 16 15 14 13 12 12 10 15 8 11 19 20 20 20 19 20
13 11 9 9 10 12 11 10 11 14 16 16 14 16 17 16 16 16 16 16 17 19 19 19 18 17 16 15 12 13 12 12 21 19 10 8 12 20 19 19 18 19 18
11 13 9 9 11 12 11 11 11 13 15 15 17 17 16 15 15 14 15 16 16 18 18 18 18 17 16 14 12 12 12 9 16 12 8 8 6 16 18 18 17 18 18
13 13 10 11 14 13 12 12 11 13 15 14 15 15 16 17 14 13 14 15 18 16 17 17 17 16 15 14 12 13 16 14 13 9 8 10 7 16 18 17 17 16 16
12 11 10 11 13 13 12 13 13 13 14 15 15 14 13 14 12 15 15 16 17 16 16 16 17 16 15 13 12 13 14 11 10 9 8 7 8 16 16 17 16 16 16
12 10 9 11 11 12 12 12 12 12 12 13 14 14 13 11 11 14 13 16 17 15 15 14 14 14 14 12 11 10 11 10 8 9 7 5 11 15 15 15 15 15 16
13 11 9 9 9 11 10 11 11 11 11 13 12 11 11 11 9 11 12 15 14 13 12 12 11 12 12 10 10 11 11 10 8 7 8 4 11 14 14 14 14 14 14
13 12 10 9 8 8 6 9 9 10 12 11 11 11 11 9 10 10 12 13 12 11 10 9 8 8 8 7 5 5 8 8 7 7 4 4 10 12 13 13 13 13 12
6 11 11 9 9 8 8 7 8 9 10 10 7 8 9 4 6 7 8 12 11 9 8 7 6 5 4 5 1 5 7 3 6 5 3 9 9 10 11 11 10 9 8
6 7 11 8 8 10 7 7 6 8 5 5 5 6 4 5 4 6 6 10 8 7 6 4 2 3 4 3 1 2 2 3 4 5 3 6 7 8 8 7 5 6 5
5 2 6 7 7 7 7 5 3 3 4 5 7 4 5 5 4 4 3 3 3 4 3 3 1 2 5 4 4 4 3 3 2 3 5 5 5 6 7 9 10 11 12
10 8 7 7 9 8 4 3 5 4 3 3 4 6 4 3 4 5 4 4 4 3 3 2 3 2 2 2 2 3 3 4 3 2 3 6 4 6 7 8 9 10 11
9 10 7 9 6 8 7 4 4 2 4 5 4 5 4 4 4 4 4 4 3 2 2 2 2 1 1 1 1 1 2 1 1 1 3 6 5 5 7 8 10 11 11
12 11 9 7 7 11 8 6 4 3 3 4 5 5 5 4 4 3 3 3 3 3 2 3 3 1 1 2 2 2 2 2 1 1 0 4 6 8 10 9 10 11 12
11 12 13 10 8 7 10 9 5 6 3 2 2 7 6 3 5 4 4 3 3 2 3 1 1 1 2 3 4 3 3 3 2 2 1 2 5 10 11 12 14 14 14
11 12 11 12 9 8 7 8 5 4 5 4 3 3 7 6 5 4 4 4 4 4 3 3 3 2 2 1 1 2 3 3 4 2 1 4 4 4 8 13 14 15 14
12 11 12 11 9 9 8 6 8 7 5 5 6 5 7 7 6 6 4 4 4 3 3 1 1 1 2 1 1 3 4 3 2 2 4 6 5 5 4 10 12 15 16
10 12 12 11 11 8 6 5 4 5 6 5 5 7 7 7 8 6 5 6 5 3 3 2 3 2 2 1 2 4 4 4 2 3 5 5 5 6 5 6 5 8 17
9 11 14 13 11 9 8 8 6 8 6 5 5 8 8 7 7 7 4 5 5 5 6 5 3 5 4 4 1 3 4 5 4 4 5 5 6 5 6 6 4 3 7
15 15 14 14 12 12 10 9 7 7 5 7 5 6 7 8 8 7 7 7 8 6 6 6 6 3 3 4 3 2 2 3 2 3 3 5 6 4 7 8 8 8 7
13 15 16 17 18 16 14 7 4 4 3 4 7 7 7 8 8 10 9 8 8 6 5 5 5 6 3 3 5 3 1 3 2 1 4 4 4 5 6 8 8 8 8
16 11 13 15 16 15 15 12 13 10 9 9 9 7 9 11 10 9 11 11 9 8 8 7 6 5 4 4 1 4 1 2 3 1 2 2 3 5 7 6 7 7 7
15 15 15 15 15 15 16 14 12 12 10 8 7 10 10 11 13 13 12 11 10 9 9 10 7 8 7 4 4 3 2 1 1 2 3 2 1 4 5 6 6 5 5
12 11 11 13 15 17 16 19 17 16 12 9 10 8 8 7 9 12 11 11 10 10 11 10 10 8 8 7 4 4 4 4 3 3 2 2 3 3 4 5 5 4 4
Wind_Direction
107 113 109 103 108 101 94 86 83 85 93 97 95 91 87 86 87 83 82 78 78 77 75 74 73 73 74 73 72 73 78 78 81 78 64 63 64 61 59 58 60 58 56
114 102 96 98 97 101 95 87 85 89 88 92 95 91 86 87 89 88 84 81 79 79 78 76 75 74 75 74 75 73 62 44 76 87 73 59 61 63 56 55 55 54 53
104 122 98 87 100 104 101 91 86 85 90 88 96 94 88 85 90 92 85 85 83 80 77 76 74 72 71 71 71 65 52 36 38 68 81 69 62 64 62 56 55 59 52
117 111 102 91 98 97 94 104 108 88 81 84 94 93 93 89 90 95 94 88 84 77 76 73 71 71 71 71 66 52 35 25 61 49 51 58 67 63 63 62 61 55 58
112 94 101 93 116 94 80 81 83 101 81 80 86 82 87 89 85 90 95 88 85 81 77 74 73 73 75 70 55 38 18 18 84 72 51 43 40 66 66 65 61 55 55
106 105 106 95 100 98 88 84 92 98 92 90 87 83 82 79 82 88 83 92 91 84 80 78 74 72 68 61 49 29 18 60 66 66 60 53 46 66 66 64 61 59 56
111 118 116 104 104 104 101 94 87 88 91 92 88 85 82 80 72 89 78 93 91 86 80 75 71 69 68 61 44 31 18 39 77 70 59 48 57 61 60 61 60 57 53
122 120 123 111 104 103 102 101 97 96 95 95 95 94 91 83 72 88 85 84 87 84 80 78 77 73 69 60 44 27 19 36 77 84 68 44 66 64 62 61 58 55 51
129 130 134 127 116 105 107 111 108 101 95 94 88 90 91 96 78 92 77 82 88 86 84 82 80 76 72 61 39 14 6 15 68 60 64 37 57 63 62 59 55 51 47
137 140 139 135 140 130 128 117 118 126 106 99 101 105 100 99 94 104 100 93 89 89 85 82 88 90 87 72 37 13 343 335 95 83 55 40 61 63 60 56 52 47 44
147 148 142 154 148 139 130 123 103 99 115 118 124 142 138 142 127 86 85 102 102 99 97 93 97 114 120 121 63 4 346 58 83 89 63 31 60 60 57 54 48 38 33
178 153 146 162 154 146 141 157 145 143 159 154 155 174 224 88 102 103 90 105 112 117 124 131 170 210 218 220 282 324 31 72 87 106 91 57 43 44 48 45 33 2 1
145 259 143 151 144 139 134 179 149 179 178 160 176 164 121 115 127 137 137 146 148 188 188 191 234 21 29 27 15 34 6 38 83 105 125 91 45 28 20 12 2 2 3
162 203 171 200 155 147 157 175 170 169 146 162 160 153 141 162 179 159 177 181 175 186 148 140 104 77 63 82 45 14 17 22 34 90 140 121 75 28 20 14 8 3 4
172 186 221 171 174 149 139 180 197 220 154 173 156 180 178 162 175 170 154 163 187 146 160 146 144 155 140 62 39 18 355 359 1 6 142 154 120 62 33 22 17 16 17
173 176 184 206 177 149 161 175 181 219 200 162 156 186 227 158 162 168 156 171 159 175 171 166 173 167 196 149 246 186 291 303 298 265 82 156 133 79 54 44 47 49 46
177 175 175 194 180 174 159 172 185 184 197 154 192 176 200 195 173 167 165 170 176 175 156 102 157 211 228 200 224 206 211 245 249 295 20 86 122 88 79 67 58 51 46
177 180 176 184 184 174 171 166 189 178 164 168 222 214 181 196 189 182 180 181 168 150 181 193 204 234 235 217 284 278 216 220 214 225 59 78 83 110 88 84 71 60 49
181 177 180 174 187 181 174 172 171 184 176 179 182 218 186 184 203 180 185 195 147 161 159 138 27 81 33 357 321 307 304 294 228 131 109 102 97 105 112 98 83 71 60
176 178 181 177 181 181 176 176 171 178 183 182 185 202 198 181 186 200 189 154 151 165 200 166 189 230 225 267 303 284 267 263 189 130 123 109 112 97 91 109 94 81 74
179 182 183 176 179 182 188 185 183 198 188 189 195 189 192 181 186 191 193 159 160 182 200 186 185 202 222 199 111 297 268 228 160 141 139 132 116 111 94 82 75 99 75
193 187 177 174 183 197 196 196 194 185 189 196 190 199 185 184 186 191 180 178 183 193 190 186 181 199 228 179 174 127 311 8 29 137 113 129 142 129 102 94 86 76 67
202 195 187 184 192 196 196 188 178 170 191 182 203 198 192 185 187 190 189 179 190 182 196 197 187 184 204 219 207 181 148 218 137 339 135 135 149 112 109 102 87 93 85
205 199 206 197 196 196 185 188 195 195 194 207 200 198 188 192 200 199 196 190 186 188 189 193 188 190 172 201 197 225 166 121 171 168 341 106 93 97 111 107 94 82 89
194 201 199 202 204 195 191 196 194 201 207 197 198 198 195 194 200 205 201 196 194 185 200 192 179 191 193 183 181 153 130 106 109 186 190 163 94 100 106 111 107 98 99
191 193 201 203 211 202 197 196 199 204 202 204 205 206 206 205 200 205 200 201 199 195 193 200 191 185 198 197 178 169 173 165 176 161 191 156 140 112 118 109 110 112 99